Regional Weather Roundup
Issued by NWS

Home | Current Version | Previous Version | Graphics & Text | Print | Product List | Glossary On
Versions: 1 2 3 4 5 6 7 8 9 10 11 12 13 14 15 16 17 18 19 20 21 22 23 24 25 26 27 28 29 30 31 32 33 34 35 36 37 38 39 40 41 42 43 44 45 46 47 48 49 50
000
ASUS43 KBIS 250331
RWRND
NORTH DAKOTA REGIONAL WEATHER ROUNDUP
NATIONAL WEATHER SERVICE EASTERN NORTH DAKOTA/GRAND FORKS ND
900 PM CST SAT FEB 24 2018

  NOTE: "FAIR" INDICATES FEW OR NO CLOUDS BELOW 12,000 FEET WITH NO
  SIGNIFICANT WEATHER AND/OR OBSTRUCTIONS TO VISIBILITY.

NDZ001>003-009>011-017-250400-
...NORTHWEST NORTH DAKOTA...

CITY           SKY/WX    TMP DP  RH WIND       PRES   REMARKS
WILLISTON      CLOUDY    21  17  84 CALM      29.58F
MINOT          CLOUDY    20  11  68 SW14      29.54F WCI   7
MINOT AFB      CLOUDY    15  10  78 W6          N/A  WCI   7
$$

NDZ018>021-031>035-040>046-250400-
...SOUTHWEST NORTH DAKOTA...

CITY           SKY/WX    TMP DP  RH WIND       PRES   REMARKS
BISMARCK       FAIR      11   6  81 SW5       29.60F WCI   3
DICKINSON      FAIR      16   8  71 W15       29.55F WCI   1
GARRISON         N/A     12   6  77 W12       29.55F WCI  -2
HETTINGER      FAIR       7   1  76 W9        29.62F WCI  -7
$$

NDZ004>008-012>016-024-026-027-054-250400-
...NORTHEAST NORTH DAKOTA...

CITY           SKY/WX    TMP DP  RH WIND       PRES   REMARKS
GRAND FORKS    LGT SNOW  17  14  88 CALM      29.63F VSB 1
GRAND FORKS AF LGT SNOW  16  12  86 CALM      29.63F FOG
DEVILS LAKE    FLURRIES  17  14  88 S8        29.58F WCI   7
$$

NDZ022-023-025-028>030-036>039-047>053-250400-
...SOUTHEAST NORTH DAKOTA...

CITY           SKY/WX    TMP DP  RH WIND       PRES   REMARKS
JAMESTOWN      LGT SNOW  15  13  91 SW5       29.59S FOG     WCI   8
FARGO          LGT SNOW  16  14  92 N10       29.61F FOG     WCI   4
WAHPETON       CLOUDY    19  18  93 N5        29.60F WCI  13
$$




USA.gov is the U.S. government's official web portal to all federal, state and local government web resources and services.